Home   Weather   Altötting   Past weeks
Flag for Germany

Past Weather in Altötting, Bavaria, Germany — Yesterday and Last 2 Weeks

Now
49 °F

Cool.


Feels Like: 48 °F
Forecast: 68 / 39 °F
Wind: 3 mph from East

Location: Ranshofen

Current Time: Apr 8, 2020 at 5:30:21 am

Latest Report: Apr 8, 2020 at 4:00 am


Visibility: N/A

Pressure: 30.32 "Hg

Humidity: 47%

Dew Point: 30 °F

Location of AltöttingLocation

Past Weather in Altötting — Graph

°F

Altötting Temperature Yesterday

Maximum temperature yesterday: 71 °F (at 5:00 pm)
Minimum temperature yesterday: 36 °F (at 7:00 am)
Average temperature yesterday: 54 °F

High & Low Weather Summary for the Past Weeks

 TemperatureHumidityPressure
High72 °F (Apr 6, 3:00 pm)91% (Apr 1, 12:00 am)30.54 "Hg (Apr 1, 12:00 am)
Low23 °F (Apr 2, 7:00 am)21% (Apr 6, 3:00 pm)29.79 "Hg (Apr 2, 7:00 pm)
Average43 °F56%30.17 "Hg
* Reported Mar 24 3:00 am — Apr 8 4:00 am, Altötting. Weather by CustomWeather, © 2020

Note: Actual official high and low records may vary slightly from our data, if they occured in-between our weather recording intervals... More about our weather records

Altötting Weather History for the Previous 24 Hours

Scroll right to see more
 ConditionsComfort  
Time TempWeatherWind HumidityBarometerVisibility
4:00 am
Wed, Apr 8
49 °FCool.3 mph47%30.32 "HgN/A
2:00 am54 °FCool.6 mph41%30.34 "HgN/A
1:00 am55 °FRefreshingly cool.6 mph39%30.34 "HgN/A
12:00 am57 °FRefreshingly cool.6 mph37%30.34 "HgN/A
11:00 pm
Tue, Apr 7
58 °FRefreshingly cool.5 mph38%30.34 "HgN/A
10:00 pm60 °FRefreshingly cool.3 mph38%30.33 "HgN/A
9:00 pm62 °FRefreshingly cool.3 mph34%30.32 "HgN/A
8:00 pm66 °FMild.3 mph29%30.30 "HgN/A
7:00 pm69 °FMild.5 mph26%30.29 "HgN/A
6:00 pm70 °FMild.6 mph21%30.29 "HgN/A
5:00 pm71 °FMild.6 mph24%30.29 "HgN/A
4:00 pm71 °FMild.6 mph25%30.32 "HgN/A
3:00 pm69 °FMild.6 mph30%30.33 "HgN/A
2:00 pm68 °FMild.3 mph36%30.36 "HgN/A
12:00 pm62 °FRefreshingly cool.1 mph41%30.40 "HgN/A
11:00 am57 °FRefreshingly cool.2 mph43%30.41 "HgN/A
10:00 am54 °FCool.1 mph51%30.42 "HgN/A
9:00 am49 °FCool.No wind61%30.42 "HgN/A
8:00 am40 °FQuite cool.No wind77%30.44 "HgN/A
7:00 am36 °FChilly.No wind82%30.43 "HgN/A
6:00 am37 °FChilly.1 mph82%30.41 "HgN/A
5:00 am38 °FChilly.No wind79%30.40 "HgN/A
Weather by CustomWeather, © 2020

See weather overview

Advertising